Regional Weather Roundup
Issued by NWS Upton, NY

Current Version | Previous Version | Text Only | Print | Product List | Glossary Off
Versions: 1 2 3 4 5 6 7 8 9 10 11 12 13 14 15 16 17 18 19 20 21 22 23 24 25 26 27 28 29 30 31 32 33 34 35 36 37 38 39 40 41 42 43 44 45 46 47 48 49 50

000
ASUS41 KOKX 072308
RWROKX

REGIONAL WEATHER ROUNDUP
NATIONAL WEATHER SERVICE NEW YORK NY
700 PM EDT TUE JUL 07 2015

NOTE: "FAIR" INDICATES FEW OR NO CLOUDS BELOW 12,000 FEET WITH NO
SIGNIFICANT WEATHER AND/OR OBSTRUCTIONS TO VISIBILITY.

NYZ071-072-176-178-NJZ106-104-080000-
NEW YORK CITY METRO AREA


CITY           SKY/WX    TMP DP  RH WIND       PRES   REMARKS
CENTRAL PARK   SUNNY     80  71  74 W6        29.96S
LAGUARDIA APRT MOSUNNY   87  67  51 SW12G21   29.93S HX  90
KENNEDY INTL   PTSUNNY   80  72  76 S10       29.95S
NEWARK/LIBERTY PTSUNNY   88  68  51 SW16G26   29.93S HX  91
BRNX BOT. GARD   N/A     79  73  83 W13       29.93F
TETERBORO      MOSUNNY   87  67  51 SW14G20   29.92R HX  90
$$

NYZ177-179-078>081-080000-
LONG ISLAND NEW YORK

CITY           SKY/WX    TMP DP  RH WIND       PRES   REMARKS
FARMINGDALE    MOSUNNY   79  72  79 SW15      29.96S
ISLIP          PTSUNNY   77  72  84 S12       29.95F
SHIRLEY        CLOUDY    76  72  87 S13G22    29.98F
WESTHAMPTON    CLOUDY    75  74  96 S8G18     29.99F
MONTAUK POINT    N/A     76  72  87 VRB6      30.00F
$$

NYZ052-065-067-080000-
HUDSON VALLEY

CITY           SKY/WX    TMP DP  RH WIND       PRES   REMARKS
WHITE PLAINS   MOSUNNY   80  73  79 S7        29.95S THUNDER
NEWBURGH       MOSUNNY   81  73  78 SW6       29.95F
MONTGOMERY     MOSUNNY   82  73  74 SW10      29.93S
POUGHKEEPSIE   MOSUNNY   80  72  76 SE5       29.92F
ALBANY         PTSUNNY   79  70  74 SE8       29.89S
$$

NJZ001-105-106-008-010-013-015-019>022-104-080000-
NEW JERSEY

CITY           SKY/WX    TMP DP  RH WIND       PRES   REMARKS
NEWARK/LIBERTY PTSUNNY   88  68  51 SW16G26   29.93S HX  91
TETERBORO      MOSUNNY   87  67  51 SW14G20   29.92R HX  90
CALDWELL       MOSUNNY   85  69  58 VRB7      29.94R
MORRISTOWN     MOSUNNY   86  72  62 SW9       29.95R HX  92
SOMERVILLE     MOSUNNY   85  68  56 VRB3      29.93S
SUSSEX         MOSUNNY   78  71  79 SW6       29.95S
ANDOVER          N/A     76  72  87 CALM      29.96F
TRENTON        MOSUNNY   83  72  69 W6        29.95F
MILLVILLE      SUNNY     85  69  58 VRB7      29.98S
ATLANTIC CITY  MOSUNNY   84  74  71 S8        29.98S HX  91
WRIGHTSTOWN    SUNNY     85  69  56 SW13      29.94R
TOMS RIVER     MOSUNNY   86  70  58 SW12G17   29.97S HX  90
BELMAR         SUNNY     86  66  51 SW10      29.96S
$$

PAZ047>061-062-071-080000-
EASTERN PENNSYLVANIA

CITY           SKY/WX    TMP DP  RH WIND       PRES   REMARKS
PHILADELPHIA   MOSUNNY   88  68  51 SW14      29.96S HX  91
ALLENTOWN      MOSUNNY   84  71  65 SW10      29.95S
SCRANTON       SUNNY     83  65  54 SW8       29.95S
$$

CTZ002-004>006-009-010-012-RIZ004-006-007-MAZ004-011-015-080000-
SOUTHERN NEW ENGLAND
 IN CT

CITY           SKY/WX    TMP DP  RH WIND       PRES   REMARKS
BRADLEY INTL   CLOUDY    74  69  85 SW9       29.95R
HARTFORD       MOSUNNY   79  72  79 S8G22     29.95R
DANBURY        CLOUDY    74  65  73 N12       29.99R
WTRBRY/OXFORD  PTSUNNY   77  70  78 S8        30.00F
BRIDGEPORT     SUNNY     79  72  79 S8        29.94F
MERIDEN        PTSUNNY   79  71  76 S9        29.95F
NEW HAVEN      PTSUNNY   76  71  85 S6        29.96S HAZE
CHESTER        CLOUDY    75  72  88 S12       30.00S
GROTON         CLOUDY    72  69  90 S8        29.98F
WILLIMANTIC    PTSUNNY   79  71  76 S12G20    29.98S

 IN RI

CITY           SKY/WX    TMP DP  RH WIND       PRES   REMARKS
PROVIDENCE     PTSUNNY   78  71  79 SW18      30.00S
BLOCK ISLAND   PTSUNNY   73  70  88 S10       30.01S
WESTERLY       CLOUDY    74  71  91 S9        30.00F

 IN MA

CITY           SKY/WX    TMP DP  RH WIND       PRES   REMARKS
BOSTON         PTSUNNY   79  71  76 S18G25    29.96F
WORCESTER      CLOUDY    77  69  76 S13       30.00S
WESTFIELD      CLOUDY    77  67  71 S12       29.95R
PROVINCETOWN   SUNNY     73  66  78 S10G16    30.01S
NANTUCKET      CLOUDY    70  68  93 S9        30.03S FOG
$$

ANZ330-335-338-340-345-350-353-355-080000-
COASTAL MARINE OBSERVATIONS


STATION/POSITION TIME  SKY/WX   TEMP    WIND        PRES    VSBY  WAVE
                                AIR SEA DIR/SP/G                  HT/PER
                 (UTC)          (F)     (DEG/KT/KT) (MB)    (MI)  (FT/S)
NY HARB ENTRANCE 2250            76 73  200/ 17/ 23 1013.6          4/ 5
4S FIRE IS       2203               72                N/A           3/ 5
20S FIRE ISLAND  2250            74 71  200/ 16/ 16 1014.5          4/ 5
GREAT SOUTH BAY  2215            75 78  200/ 16/ 19   N/A
23SW MTP         2250            73 70  200/ 16/ 19 1015.2          3/ 8
HUDSON CANYON    NOT AVBL
KINGS POINT      2200            78 70  200/ 15/ 16 1013.1
CENTRAL LI SOUND NOT AVBL
EASTERN LI SOUND 2200            70 64  150/  4/  6   N/A
ROBBINS REEF     2200            85     230/ 10/ 12 1012.5
$$


>>>>>>>>>>>>>>>>>>>>>>>>>>>> KEY <<<<<<<<<<<<<<<<<<<<<<<<<<<
>                                                          <
>     SKY/WX - SKY CONDITION/PRESENT WEATHER               <
>     TMP    - TEMPERATURE IN FAHRENHEIT                   <
>     DP     - DEWPOINT IN FAHRENHEIT                      <
>     RH     - RELATIVE HUMIDITY IN PERCENT                <
>     WIND   - DIRECTION AND SPEED IN MPH                  <
>     PRES   - MEAN SEA LEVEL PRESSURE IN INCHES OF HG     <
>     WCI    - WIND CHILL INDEX                            <
>     VSB    - VISIBILITY IN MILES                         <
>     HX     - HEAT INDEX                                  <
>     TC     - TEMPERATURE IN CELSIUS                      <
>     VRB    - VARIABLE WIND DIRECTION                     <
>                                                          <
>>>>>>>>>>>>>>>>>>>>>>>>>>>> KEY <<<<<<<<<<<<<<<<<<<<<<<<<<<




USA.gov is the U.S. government's official web portal to all federal, state and local government web resources and services.